User: anonymous   Login
Location: Writing-on-Stone Provincial Park
(49.0825°N, 111.6163°W)
Time: 19:58:14
(UTC-06:00)
Language:

BREEZE-M DEB (TANK) - Orbit

View from above orbital plane
View from above orbital plane
View from above satellite
View from above satellite

Ground track
Ground track

The orbit data is extracted from the following two-line orbital elements,

1 29649U 06056B   16241.73806444  .00001885  00000-0  34440-3 0  9997
2 29649  49.4891  87.3984 5386150 339.0330   5.4271  4.98753504173167
Epoch (UTC): 28 August 2016 17:42:48
Eccentricity: 0.5386150
inclination: 49.4891°
perigee height: 298 km
apogee height: 15886 km
right ascension of ascending node: 87.3984°
argument of perigee: 339.0330°
revolutions per day: 4.98753504
mean anomaly at epoch: 5.4271°
orbit number at epoch: 17316

The dashed part of the orbit path shows where the satellite is in the earth's shadow,  

DLR